GW3256 Weather Reports


Display with metric or nautical units.
time (UTC)temp
F
wind
direction
speed
MPH
gust
MPH
rain 1hr
in
rain 24hr
in
rain mn
in
humidity
%
barometer
mb
20260505205058 65 279 1.0 3.0 0.00 0.00 0.00 88 239.9
20260505204559 65 346 0.0 3.0 0.00 0.00 0.00 88 1780.6
20260505204058 65 53 1.0 3.0 0.00 0.00 0.00 88 1377.3
20260505203558 65 97 2.0 3.0 0.00 0.00 0.00 89 229.5
20260505203105 65 34 2.0 3.0 0.00 0.00 0.00 89 1046.2
20260505202558 65 352 2.0 3.0 0.00 0.00 0.00 89 1542.8
20260505202058 65 28 1.0 3.0 0.00 0.00 0.00 89 1863.3
20260505201606 65 29 2.0 3.0 0.00 0.00 0.00 89 456.3
20260505201101 64 31 1.0 2.0 0.00 0.00 0.00 89 5.8
20260505200558 64 11 0.0 4.0 0.00 0.00 0.00 89 1129.0
20260505200059 64 11 0.0 4.0 0.00 0.00 0.00 89 302.1
20260505195600 64 56 3.0 4.0 0.00 0.00 0.00 89 2111.4
20260505195100 64 45 2.0 4.0 0.00 0.00 0.00 89 405.7
20260505194559 64 9 0.0 4.0 0.00 0.00 0.00 89 559.8
20260505194100 64 350 2.0 4.0 0.00 0.00 0.00 89 63.5
20260505193602 64 5 2.0 3.0 0.00 0.00 0.00 89 41.5
20260505193059 64 43 1.0 2.0 0.00 0.00 0.00 89 404.5
20260505192558 64 30 1.0 2.0 0.00 0.00 0.00 89 72.7
20260505192100 64 0 1.0 3.0 0.00 0.00 0.00 89 642.7
20260505191615 64 20 2.0 3.0 0.00 0.00 0.00 89 1708.2
20260505191057 64 28 1.0 3.0 0.00 0.00 0.00 89 735.8
20260505190559 64 9 1.0 3.0 0.00 0.00 0.00 89 642.7
20260505190057 63 352 1.0 2.0 0.00 0.00 0.00 89 42.7
20260505185558 64 272 0.0 2.0 0.00 0.00 0.00 89 1222.1
20260505185101 63 272 0.0 2.0 0.00 0.00 0.00 89 1387.6
20260505184601 63 272 1.0 2.0 0.00 0.00 0.00 89 1035.9
20260505184058 63 0 0.0 2.0 0.00 0.00 0.00 89 653.0
20260505183600 63 272 1.0 2.0 0.00 0.00 0.00 89 787.6
20260505183058 63 272 0.0 2.0 0.00 0.00 0.00 89 632.3
20260505182558 63 272 1.0 3.0 0.00 0.00 0.00 88 1977.0
20260505182105 63 0 1.0 3.0 0.00 0.00 0.00 89 322.8
20260505181558 63 333 1.0 5.0 0.00 0.00 0.00 88 1790.9
20260505181057 63 351 1.0 5.0 0.00 0.00 0.00 89 2028.7
20260505180558 63 334 4.0 5.0 0.00 0.00 0.00 89 300.9
20260505180105 63 336 3.0 4.0 0.00 0.00 0.00 89 1377.3
20260505175601 63 340 0.0 2.0 0.00 0.00 0.00 89 124.6
20260505175058 63 38 1.0 2.0 0.00 0.00 0.00 89 891.1
20260505174612 63 43 0.0 2.0 0.00 0.00 0.00 88 2028.7
20260505174101 63 0 0.0 2.0 0.00 0.00 0.00 88 1201.4
20260505173600 63 352 0.0 2.0 0.00 0.00 0.00 88 1811.6
20260505173059 63 352 1.0 5.0 0.00 0.00 0.00 88 321.6
20260505172600 63 322 0.0 5.0 0.00 0.00 0.00 88 1294.5
20260505172057 63 325 2.0 5.0 0.00 0.00 0.00 88 208.8
20260505171558 63 352 1.0 3.0 0.00 0.00 0.00 88 653.0
20260505171058 63 18 1.0 3.0 0.00 0.00 0.00 88 228.3
20260505170558 63 20 1.0 3.0 0.00 0.00 0.00 88 1211.8
20260505170059 63 19 1.0 3.0 0.00 0.00 0.00 88 539.1
20260505165558 63 44 1.0 3.0 0.00 0.00 0.00 88 136.2
20260505165058 63 53 2.0 3.0 0.00 0.00 0.00 88 1480.7
20260505164557 63 53 1.0 2.0 0.00 0.00 0.00 88 1780.6
20260505164058 63 17 1.0 2.0 0.00 0.00 0.00 88 1894.3
20260505163558 63 0 0.0 1.0 0.00 0.00 0.00 88 1625.5
20260505163057 63 0 0.0 2.0 0.00 0.00 0.00 88 642.7
20260505162557 63 17 0.0 3.0 0.00 0.00 0.00 88 653.0
20260505162059 63 31 2.0 3.0 0.00 0.00 0.00 88 322.8
20260505161601 63 323 1.0 2.0 0.00 0.00 0.00 88 2121.8
20260505161058 63 273 0.0 3.0 0.00 0.00 0.00 88 1201.4
20260505160601 63 0 0.0 3.0 0.00 0.00 0.00 88 2121.8
20260505153101 63 279 0.0 3.0 0.00 0.00 0.00 86 1449.7
20260505152558 63 293 1.0 3.0 0.00 0.00 0.00 87 2204.5
20260505152101 63 148 0.0 3.0 0.00 0.00 0.00 87 1697.9
20260505151559 63 30 2.0 3.0 0.00 0.00 0.00 87 1460.0
20260505151102 63 312 0.0 3.0 0.00 0.00 0.00 87 704.8
20260505150559 63 292 1.0 3.0 0.00 0.00 0.00 87 2214.8
20260505140601 63 299 2.0 3.0 0.00 0.00 0.00 87 5.8
20260505130110 64 11 1.0 4.0 0.00 0.00 0.00 85 1718.5
20260505124618 65 348 2.0 4.0 0.00 0.00 0.00 86 456.3
20260505124057 65 315 1.0 4.0 0.00 0.00 0.00 86 1801.2
20260505123557 65 307 3.0 4.0 0.00 0.00 0.00 86 1232.5
20260505123116 65 279 2.0 3.0 0.00 0.00 0.00 86 374.6
20260505122557 66 352 2.0 3.0 0.00 0.00 0.00 86 1149.7
20260505122100 66 290 1.0 3.0 0.00 0.00 0.00 86 239.9
20260505121559 66 294 2.0 3.0 0.00 0.00 0.00 85 1728.9
20260505121103 66 285 1.0 4.0 0.00 0.00 0.00 85 405.7
20260505120558 66 284 2.0 4.0 0.00 0.00 0.00 86 2111.4
20260505115600 66 327 2.0 4.0 0.00 0.00 0.00 85 239.9
20260505115100 66 330 1.0 4.0 0.00 0.00 0.00 85 63.5
20260505114602 67 327 1.0 3.0 0.00 0.00 0.00 86 291.7
20260505114100 67 0 0.0 3.0 0.00 0.00 0.00 86 41.5
20260505113559 67 0 0.0 3.0 0.00 0.00 0.00 86 539.1
20260505113101 67 310 2.0 6.0 0.00 0.00 0.00 86 2049.4
20260505112602 67 295 2.0 6.0 0.00 0.00 0.00 86 901.4
20260505112058 67 311 4.0 6.0 0.00 0.00 0.00 87 1066.9
20260505111602 67 303 3.0 7.0 0.00 0.00 0.00 87 239.9
20260505111101 67 328 4.0 7.0 0.00 0.00 0.00 87 385.0
20260505110600 67 279 2.0 3.0 0.00 0.00 0.00 87 145.3
20260505102059 69 332 1.0 2.0 0.00 0.02 0.00 86 973.8
20260505101610 69 332 1.0 3.0 0.00 0.02 0.00 85 1035.9
20260505101102 69 345 2.0 3.0 0.00 0.02 0.00 85 394.1
20260505100603 70 316 0.0 2.0 0.00 0.02 0.00 85 653.0
20260505100107 70 316 1.0 2.0 0.00 0.02 0.00 84 1718.5
20260505095559 70 349 0.0 5.0 0.00 0.03 0.00 84 1480.7
20260505095058 71 292 1.0 6.0 0.00 0.03 0.00 84 238.7
20260505094600 71 225 2.0 6.0 0.00 0.03 0.00 84 725.5
20260505094059 71 242 2.0 5.0 0.00 0.03 0.00 84 146.5
20260505093601 71 221 2.0 5.0 0.00 0.03 0.00 84 1222.1
20260505093107 71 217 2.0 8.0 0.00 0.03 0.00 84 1553.1
20260505092603 71 279 3.0 10.0 0.00 0.03 0.00 84 715.1
20260505092100 71 225 2.0 10.0 0.00 0.03 0.00 84 632.3
20260505091559 71 227 5.0 9.0 0.00 0.03 0.00 84 42.7
20260505091103 71 257 1.0 4.0 0.00 0.03 0.00 83 704.8
20260505090559 71 288 1.0 5.0 0.00 0.03 0.00 83 1532.4
20260505090106 72 271 3.0 8.0 0.00 0.03 0.00 84 787.6
20260505085559 72 267 2.0 8.0 0.00 0.03 0.00 84 798.0
20260505085059 72 232 3.0 8.0 0.00 0.03 0.00 84 63.5
20260505084605 71 180 4.0 8.0 0.00 0.03 0.00 84 208.8
20260505084059 71 199 2.0 5.0 0.00 0.03 0.00 84 1222.1
20260505083600 71 260 2.0 5.0 0.00 0.03 0.00 84 1966.7
20260505083105 71 243 2.0 4.0 0.00 0.03 0.00 84 704.8
20260505082558 71 226 2.0 4.0 0.00 0.03 0.00 84 1811.6
20260505082059 70 236 2.0 4.0 0.00 0.03 0.00 84 642.7
20260505081624 70 254 1.0 4.0 0.00 0.03 0.00 84 1480.7
20260505081100 70 263 1.0 4.0 0.00 0.03 0.00 83 1790.9
20260505080559 71 278 1.0 4.0 0.00 0.03 0.00 83 1284.2
20260505075601 71 292 2.0 4.0 0.00 0.03 0.00 82 1801.2
20260505075059 71 309 2.0 3.0 0.00 0.03 0.00 82 1863.3
20260505074559 72 286 2.0 3.0 0.00 0.03 0.00 82 704.8
20260505074059 72 323 2.0 3.0 0.00 0.03 0.00 82 72.7
20260505073559 73 352 1.0 2.0 0.00 0.03 0.00 82 72.7
20260505073104 73 349 0.0 2.0 0.00 0.03 0.00 82 322.8
20260505072558 74 346 1.0 2.0 0.00 0.03 0.00 82 1377.3
20260505072059 75 340 2.0 2.0 0.00 0.03 0.00 81 787.6
20260505071559 75 340 2.0 3.0 0.00 0.03 0.00 80 1615.1
20260505071059 76 311 1.0 3.0 0.00 0.03 0.00 79 2194.1
20260505070559 77 270 2.0 7.0 0.00 0.03 0.00 79 374.6
20260505070100 78 262 2.0 7.0 0.00 0.03 0.00 77 1470.4
20260505065558 78 265 3.0 8.0 0.00 0.03 0.00 76 1542.8
20260505065058 79 242 4.0 8.0 0.00 0.03 0.00 75 715.1
20260505064601 79 245 4.0 12.0 0.00 0.03 0.00 76 2214.8
20260505064059 79 203 5.0 12.0 0.00 0.03 0.00 76 642.7
20260505063559 79 202 4.0 9.0 0.00 0.03 0.00 75 53.1
20260505063113 79 204 5.0 10.0 0.00 0.03 0.00 75 1884.0
20260505062559 80 224 6.0 10.0 0.00 0.03 0.00 75 1470.4
20260505062059 80 192 4.0 9.0 0.00 0.03 0.00 75 1035.9
20260505061621 80 221 6.0 9.0 0.00 0.03 0.00 75 229.5
20260505061058 80 219 3.0 9.0 0.00 0.03 0.00 76 1211.8
20260505060601 80 239 4.0 10.0 0.00 0.03 0.00 75 1056.6
20260505060058 80 225 5.0 10.0 0.00 0.03 0.00 74 725.5
20260505055559 80 215 4.0 9.0 0.00 0.03 0.00 74 1946.0
20260505055059 80 220 4.0 8.0 0.00 0.03 0.00 74 1222.1
20260505054558 80 184 4.0 8.0 0.00 0.03 0.00 74 394.1
20260505054100 80 161 5.0 10.0 0.00 0.03 0.00 74 53.1
20260505053559 80 210 5.0 10.0 0.00 0.03 0.00 75 1863.3
20260505053100 80 209 3.0 9.0 0.00 0.03 0.00 75 1811.6
20260505052558 80 203 4.0 9.0 0.00 0.03 0.00 75 42.7
20260505052059 80 177 4.0 8.0 0.00 0.03 0.00 76 1304.9
20260505051559 79 219 4.0 8.0 0.00 0.03 0.00 75 1066.9
20260505051059 80 208 4.0 7.0 0.00 0.03 0.00 75 1563.4
20260505050600 80 207 3.0 7.0 0.00 0.03 0.00 75 394.1
20260505050106 80 151 3.0 7.0 0.00 0.03 0.00 73 72.7
20260505041557 80 228 6.0 11.0 0.00 0.03 0.00 75 715.1
20260505041058 80 169 5.0 10.0 0.00 0.03 0.00 76 155.7
20260505040558 80 204 4.0 10.0 0.00 0.03 0.00 76 622.0
20260505040101 80 205 5.0 10.0 0.00 0.03 0.00 76 1790.9
20260505035600 80 214 3.0 11.0 0.00 0.03 0.00 77 466.6
20260505035101 80 177 7.0 11.0 0.00 0.03 0.00 76 291.7
20260505034558 79 245 6.0 11.0 0.00 0.03 0.00 78 477.0
20260505034059 79 210 6.0 11.0 0.00 0.03 0.00 77 394.1
20260505033559 79 178 7.0 15.0 0.00 0.03 0.00 77 51.9
20260505033059 79 165 7.0 15.0 0.00 0.03 0.00 77 456.3
20260505032559 79 186 7.0 13.0 0.00 0.03 0.00 76 466.6
20260505032058 79 159 9.0 13.0 0.00 0.03 0.00 75 72.7
20260505031557 80 171 9.0 13.0 0.00 0.03 0.00 74 322.8
20260505031059 80 193 5.0 12.0 0.00 0.03 0.00 75 1398.0
20260505030558 80 183 5.0 12.0 0.00 0.03 0.00 75 818.6
20260505030059 80 235 8.0 12.0 0.00 0.03 0.00 74 311.3
20260505025559 81 202 6.0 12.0 0.00 0.03 0.00 75 135.0
20260505025102 80 188 8.0 12.0 0.00 0.03 0.00 75 984.2
20260505024558 81 166 6.0 11.0 0.00 0.03 0.00 75 383.8
20260505024059 80 200 6.0 12.0 0.00 0.03 0.00 75 1056.6
20260505023559 81 231 7.0 12.0 0.00 0.03 0.00 73 1377.3
20260505023104 81 161 4.0 10.0 0.00 0.03 0.00 73 156.9
20260505022558 80 247 3.0 7.0 0.00 0.03 0.00 74 1728.9
20260505022059 80 180 4.0 11.0 0.00 0.03 0.00 74 1118.7
20260505021557 81 199 6.0 15.0 0.00 0.03 0.00 74 1149.7
20260505021059 81 207 8.0 15.0 0.00 0.03 0.00 74 798.0
20260505020558 81 184 7.0 14.0 0.00 0.03 0.00 73 2194.1
20260505020100 81 178 9.0 14.0 0.00 0.03 0.00 73 238.7
20260505015559 81 159 5.0 12.0 0.00 0.03 0.00 70 373.4
20260505015059 81 188 7.0 12.0 0.00 0.03 0.00 70 1066.9
20260505014608 80 229 8.0 14.0 0.00 0.03 0.00 71 1398.0
20260505014058 80 184 5.0 14.0 0.00 0.03 0.00 74 715.1
20260505013559 80 190 7.0 12.0 0.00 0.03 0.00 75 1232.5
20260505013058 80 196 5.0 12.0 0.00 0.03 0.00 76 798.0
20260505012558 80 193 7.0 12.0 0.00 0.03 0.00 75 208.8
20260505012058 80 162 6.0 12.0 0.00 0.03 0.00 73 1718.5
20260505011559 80 194 7.0 11.0 0.00 0.03 0.00 73 41.5
20260505011059 80 147 5.0 13.0 0.00 0.03 0.00 74 953.2
20260505010559 80 205 7.0 13.0 0.00 0.03 0.00 74 1863.3
20260505010118 80 196 5.0 11.0 0.00 0.03 0.00 76 1863.3
20260505005558 80 171 6.0 11.0 0.00 0.03 0.00 76 622.0
20260505005058 80 157 6.0 14.0 0.00 0.03 0.00 76 136.2
20260505004557 79 128 7.0 14.0 0.00 0.03 0.00 76 321.6
20260505004058 79 112 7.0 14.0 0.00 0.03 0.00 77 870.4
20260505003558 79 155 7.0 14.0 0.00 0.03 0.00 77 1532.4
20260505003100 79 153 6.0 12.0 0.00 0.03 0.00 78 2204.5
20260505002558 79 99 6.0 12.0 0.00 0.03 0.00 77 1222.1
20260505002059 78 187 6.0 10.0 0.00 0.03 0.00 79 632.3
20260505001612 78 219 6.0 12.0 0.00 0.03 0.00 79 1801.2
20260505001102 78 179 6.0 12.0 0.00 0.03 0.00 78 1542.8
20260505000558 78 171 7.0 11.0 0.00 0.03 0.00 78 73.9
20260505000100 78 178 4.0 13.0 0.00 0.03 0.00 79 374.6
20260504235558 78 192 6.0 13.0 0.00 0.03 0.00 80 42.7
20260504235057 78 151 5.0 8.0 0.00 0.03 0.00 79 1139.4
20260504234558 77 186 4.0 13.0 0.00 0.03 0.00 80 62.3
20260504234058 77 207 7.0 13.0 0.00 0.03 0.00 80 1956.3
20260504233558 77 164 4.0 11.0 0.00 0.03 0.00 80 383.8
20260504233058 76 165 3.0 7.0 0.00 0.03 0.00 81 901.4
20260504232559 76 211 3.0 8.0 0.00 0.03 0.00 81 2049.4
20260504232058 76 190 4.0 8.0 0.00 0.03 0.00 81 984.2
20260504231600 75 212 4.0 6.0 0.00 0.03 0.00 82 155.7
20260504231058 75 0 1.0 3.0 0.00 0.03 0.00 84 383.8
20260504230558 75 207 0.0 3.0 0.00 0.03 0.00 84 1563.4
20260504230100 75 150 1.0 4.0 0.00 0.03 0.00 85 145.3
20260504225559 74 277 2.0 4.0 0.00 0.03 0.00 86 456.3
20260504225101 74 0 1.0 3.0 0.00 0.03 0.00 87 1563.4
20260504224558 73 219 1.0 6.0 0.00 0.03 0.00 87 466.6
20260504224058 73 166 1.0 6.0 0.00 0.03 0.00 87 1398.0
20260504223558 73 125 3.0 5.0 0.00 0.03 0.00 87 1398.0
20260504223103 73 117 2.0 3.0 0.00 0.03 0.00 88 125.8
20260504222602 73 314 1.0 2.0 0.00 0.03 0.00 89 1615.1
20260504222057 73 36 1.0 2.0 0.00 0.03 0.00 89 219.2
20260504221612 72 11 1.0 6.0 0.00 0.03 0.00 89 818.6
20260504221100 71 0 2.0 6.0 0.00 0.03 0.00 89 217.9
20260504220600 71 140 2.0 3.0 0.00 0.03 0.00 89 124.6
20260504220058 71 61 0.0 2.0 0.00 0.03 0.00 89 1563.4
20260504215558 71 360 1.0 2.0 0.00 0.03 0.00 89 291.7
20260504215100 71 0 0.0 4.0 0.00 0.03 0.00 89 1211.8
20260504214610 70 0 2.0 4.0 0.00 0.03 0.00 89 155.7
20260504214058 71 150 2.0 4.0 0.00 0.03 0.00 89 1480.7
20260504213558 71 137 0.0 3.0 0.00 0.03 0.00 89 135.0
20260504213112 70 344 1.0 4.0 0.00 0.03 0.00 89 1211.8
20260504212558 70 350 3.0 5.0 0.00 0.03 0.00 89 1315.2
20260504212059 70 352 1.0 5.0 0.00 0.03 0.00 89 62.3
20260504211559 70 13 3.0 5.0 0.00 0.03 0.00 89 1966.7
20260504211058 70 9 1.0 3.0 0.00 0.03 0.00 89 549.5
20260504210558 70 315 2.0 3.0 0.00 0.03 0.00 89 1563.4
20260504210101 69 315 2.0 2.0 0.00 0.03 0.00 89 735.8
20260504205558 69 315 0.0 2.0 0.00 0.03 0.00 89 1398.0